STARLINK-1919 (46769 NORAD) Tracking and Keplerian Element Data

This shows tracking and keplerian element data for the satellite.

Feedback or suggestion? Click here.




ElementValue
Catalog46769
NameSTARLINK-1919
Epoch Orbit178
Epoch Day330.91667824
Epoch Year2020
RAAN2.3345
Inclination53.056
Eccentricity0.0001185
Argument of Perigee69.2663
Mean Anonmoly342.7288
Mean Motion15.47864963
Decay Rate-0.01080204
L11 46769U 20074AG 20330.91667824 -.01080204 00000-0 -22556-1 0 9994
L22 46769 53.0560 2.3345 0001185 69.2663 342.7288 15.47864963 1780

Live tracking and technical data element details for STARLINK-1919 (NORAD 46769). STARLINK-1919 can be tracked NOW for your location showing map with azimuth and elevation plus other details from your city location.

Track the satellite on the map from your city or location and see movement details for azimuth, elevation, latitude, longitude, range, height, and movement on the map or in text.







IsCatalogInMostPopularTable: catalog: 46769, numindb: 6
Update: records affected: 1



GetName: 46769 STARLINK-1919

Hit Count: updated at: Thu, 26 Nov 2020 18:46:00 GMT